STARLINK-2485 (48142 NORAD) Tracking and Keplerian Element Data

This shows tracking and keplerian element data for the satellite.

Feedback or suggestion? Click here.




ElementValue
Catalog48142
NameSTARLINK-2485
Epoch Orbit198
Epoch Day173.91668981
Epoch Year2021
RAAN321.701
Inclination53.0462
Eccentricity0.0004353
Argument of Perigee358.1796
Mean Anonmoly19.1025
Mean Motion15.66609117
Decay Rate-0.01091921
L11 48142U 21027BC 21173.91668981 -.01091921 00000-0 -11428-1 0 9995
L22 48142 53.0462 321.7010 0004353 358.1796 19.1025 15.66609117 1987

Live tracking and technical data element details for STARLINK-2485 (NORAD 48142). STARLINK-2485 can be tracked NOW for your location showing map with azimuth and elevation plus other details from your city location.

Track the satellite on the map from your city or location and see movement details for azimuth, elevation, latitude, longitude, range, height, and movement on the map or in text.







IsCatalogInMostPopularTable: catalog: 48142, numindb: 33
Update: records affected: 1



GetName: 48142 STARLINK-2485

Hit Count: updated at: Thu, 24 Jun 2021 04:08:54 GMT